Home   Weather   Bismarck   Past weeks
Flag for USA

Past Weather in Bismarck, North Dakota, USA — Yesterday and Last 2 Weeks

Now
41 °F

Partly sunny.


Feels Like: 37 °F
Forecast: 63 / 33 °F
Wind: 6 mph from North

Location: Bismarck Municipal Airport

Current Time: Apr 7, 2020 at 11:02:23 am

Latest Report: Apr 7, 2020 at 9:52 am


Visibility: 10 mi

Pressure: 29.80 "Hg (27.98 "Hg at 513m altitude)

Humidity: 74%

Dew Point: 33 °F

Location of BismarckLocation

Past Weather in Bismarck — Graph

°F

Bismarck Temperature Yesterday

Maximum temperature yesterday: 62 °F (at 5:52 pm)
Minimum temperature yesterday: 31 °F (at 6:52 am)
Average temperature yesterday: 45 °F

High & Low Weather Summary for the Past Weeks

 TemperatureHumidityPressure
High65 °F (Mar 30, 3:52 pm)96% (Apr 1, 5:52 am)30.41 "Hg (Apr 1, 5:52 am)
Low8 °F (Apr 4, 5:52 am)22% (Mar 27, 3:52 pm)29.61 "Hg (Apr 6, 7:52 pm)
Average35 °F68%29.96 "Hg
* Reported Mar 23 9:52 am — Apr 7 9:52 am, Bismarck. Weather by CustomWeather, © 2020

Note: Actual official high and low records may vary slightly from our data, if they occured in-between our weather recording intervals... More about our weather records

Bismarck Weather History for the Previous 24 Hours

Scroll right to see more
 ConditionsComfort  
Time TempWeatherWind HumidityBarometerVisibility
9:52 am
Tue, Apr 7
41 °FPartly sunny.6 mph74%29.80 "Hg10 mi
8:52 am40 °FPartly sunny.3 mph77%29.78 "Hg10 mi
7:52 am36 °FSunny.3 mph89%29.77 "Hg10 mi
6:52 am37 °FClear.5 mph86%29.76 "Hg10 mi
5:52 am38 °FPassing clouds.3 mph86%29.77 "Hg10 mi
4:52 am40 °FPassing clouds.6 mph73%29.76 "Hg10 mi
3:52 am43 °FClear.6 mph65%29.74 "Hg10 mi
2:52 am46 °FClear.12 mph58%29.73 "Hg10 mi
1:52 am46 °FClear.7 mph58%29.71 "Hg9 mi
12:52 am46 °FPassing clouds.8 mph58%29.70 "Hg10 mi
11:52 pm
Mon, Apr 6
47 °FClear.No wind56%29.68 "Hg10 mi
10:52 pm47 °FClear.7 mph56%29.66 "Hg10 mi
9:52 pm49 °FClear.3 mph52%29.64 "Hg10 mi
8:52 pm50 °FClear.5 mph48%29.61 "Hg10 mi
7:52 pm57 °FSunny.3 mph37%29.61 "Hg10 mi
6:52 pm61 °FSunny.6 mph32%29.61 "Hg10 mi
5:52 pm62 °FSunny.10 mph31%29.61 "Hg10 mi
4:52 pm61 °FSunny.6 mph32%29.62 "Hg10 mi
3:52 pm60 °FSunny.9 mph33%29.62 "Hg10 mi
2:52 pm58 °FSunny.8 mph38%29.65 "Hg10 mi
1:52 pm55 °FSunny.10 mph42%29.67 "Hg10 mi
12:52 pm50 °FSunny.No wind50%29.70 "Hg10 mi
11:52 am47 °FSunny.3 mph56%29.72 "Hg10 mi
Weather by CustomWeather, © 2020

See weather overview

Advertising